Regional Weather Roundup
Issued by NWS

Home | Current Version | Previous Version | Graphics & Text | Print | Product List | Glossary On
Versions: 1 2 3 4 5 6 7 8 9 10 11 12 13 14 15 16 17 18 19 20 21 22 23 24 25 26 27 28 29 30 31 32 33 34 35 36 37 38 39 40 41 42 43 44 45 46 47 48 49 50
000
ASUS43 KLOT 161810
RWRIL

ILLINOIS REGIONAL WEATHER ROUNDUP
NATIONAL WEATHER SERVICE CHICAGO/ROMEOVILLE IL
100 PM CDT TUE SEP 16 2014

NOTE: "FAIR" INDICATES FEW OR NO CLOUDS BELOW 12,000 FEET WITH NO
SIGNIFICANT WEATHER AND/OR OBSTRUCTIONS TO VISIBILITY.

* THESE STATIONS ARE NOT UNDER NWS QUALITY CONTROL. THEY ALSO MAY NOT
  REPORT WEATHER SUCH AS PRECIPITATION OR FOG.

ILZ001-002-007-009-015-016-024-161900-
NORTHWEST ILLINOIS

CITY           SKY/WX    TMP DP  RH WIND       PRES   REMARKS
MOLINE         SUNNY     65  42  43 NW8       30.20F
6HR MIN TEMP:  40; 6HR MAX TEMP:  65;

STERLING*      SUNNY     64  45  48 W5        30.19F
SAVANNA*       SUNNY     63  42  46 W3        30.20F
$$

ILZ003-004-008-010-011-017-018-161900-
NORTH CENTRAL ILLINOIS

CITY           SKY/WX    TMP DP  RH WIND       PRES   REMARKS
ROCKFORD       MOSUNNY   63  38  39 VRB7      30.20F
6HR MIN TEMP:  39; 6HR MAX TEMP:  64;

FREEPORT*      SUNNY     60  42  50 W6        30.21F
ROCHELLE*      SUNNY     62  41  44 W8        30.19F
DE KALB*       SUNNY     61  43  51 W8        30.19F
PERU*          SUNNY     63  44  51 CALM      30.19F
$$

ILZ005-006-012>014-019>023-161900-
NORTHEAST ILLINOIS

CITY           SKY/WX    TMP DP  RH WIND       PRES   REMARKS
CHICAGO-OHARE  MOSUNNY   63  39  41 NW6       30.17F
6HR MIN TEMP:  45; 6HR MAX TEMP:  63;

CHICAGO-MIDWAY MOSUNNY   65  43  44 VRB3      30.17F
6HR MIN TEMP:  47; 6HR MAX TEMP:  65;

AURORA         SUNNY     65  42  43 W6        30.19F
6HR MIN TEMP:  40; 6HR MAX TEMP:  65;

LANSING*       SUNNY     64  46  51 W3        30.18F
JOLIET*        MOSUNNY   62  42  47 CALM      30.19F
WAUKEGAN       SUNNY     63  41  44 VRB3      30.17F
6HR MIN TEMP:  44; 6HR MAX TEMP:  63;

DUPAGE AIRPORT SUNNY     65  41  41 NW3       30.18F
6HR MIN TEMP:  42; 6HR MAX TEMP:  66;

KANKAKEE*      MOSUNNY   64  47  53 CALM      30.19F
WHEELING       SUNNY     65  40  39 W7        30.19F
6HR MIN TEMP:  45; 6HR MAX TEMP:  65;

MORRIS*        MOSUNNY   64  45  50 E3        30.18F
ROMEOVILLE*    MOSUNNY   64  43  46 W3        30.18F
NORTHERLY ISL    N/A     59  50  72 NE7         N/A
$$

LMZ740>746-161900-
SOUTHERN LAKE MICHIGAN

STATION/POSITION SKY/WX   TEMP    WIND        PRES    VSBY  WAVE
                          AIR SEA DIR/SP/G                  HT/PER
                          (F)     (DEG/KT/KT) (MB)    (MI)  (FT/S)
SOUTHERN BUOY              58 64  280/  6/ 10 1022.0F         2/ 4
WAUKEGAN HARBOR            58      80/  7/  8   N/A
HARRISON CRIB              57      20/  7/  8   N/A
BURNHAM HARBOR             60      50/  5/  7   N/A
CALUMET HARBOR             60      50/  6/  8 1020.7F
MICHIGAN CITY              60     270/  9/ 10   N/A
MICHIGAN CITY 6N           59 64  310/  8/ 10   N/A           2/ 4
ST. JOSEPH                 60 67  320/  8/ 10   N/A           2/ 4
$$

ILZ025>027-034>036-040-047-049-050-058-095>099-161900-
WEST-CENTRAL ILLINOIS

CITY           SKY/WX    TMP DP  RH WIND       PRES   REMARKS
QUINCY         SUNNY     64  47  53 VRB3      30.20F
GALESBURG*     SUNNY     68  48  47 CALM      30.20F
MACOMB*        SUNNY     63  45  51 CALM      30.22F
JACKSONVILLE*  PTSUNNY   65  51  58 N3        30.20F
PITTSFIELD*    PTSUNNY   63  49  61 CALM      30.20F
$$

ILZ028>032-037-038-041>044-048-051>054-059>061-161900-
CENTRAL ILLINOIS

CITY           SKY/WX    TMP DP  RH WIND       PRES   REMARKS
PONTIAC        MOSUNNY   63  45  51 N5        30.19F
DECATUR        MOSUNNY   65  51  60 N3        30.20F
PEORIA         SUNNY     66  45  46 N7        30.19F
6HR MIN TEMP:  48; 6HR MAX TEMP:  66;

LACON*         SUNNY     63  42  46 CALM      30.19F
LINCOLN*       SUNNY     66  50  55 CALM      30.17F
SPRINGFIELD    PTSUNNY   62  48  60 CALM      30.20F
6HR MIN TEMP:  49; 6HR MAX TEMP:  66;

TAYLORVILLE    CLOUDY    59  50  72 W3        30.20F
$$

ILZ033-039-045-046-055>057-062-063-161900-
EAST-CENTRAL ILLINOIS

CITY           SKY/WX    TMP DP  RH WIND       PRES   REMARKS
CHAMPAIGN      CLOUDY    62  49  62 NW3       30.19F
DANVILLE*      CLOUDY    61  50  67 CALM      30.16F
RANTOUL*       SUNNY     65  47  51 NE3       30.19F
MATTOON        PTSUNNY   59  51  75 S3        30.19F
PARIS*         CLOUDY    62  51  67 E3        30.19F
$$

ILZ079-100>102-161900-
SOUTHWEST ILLINOIS

CITY           SKY/WX    TMP DP  RH WIND       PRES   REMARKS
ALTON          CLOUDY    61  52  72 CALM      30.21F
BELLEVILLE     CLOUDY    62  53  72 N5        30.19F
CAHOKIA*       CLOUDY    64  54  69 NE9       30.20S
SPARTA*        CLOUDY    63  53  71 N7        30.20F
$$

ILZ064>066-069>071-074>076-080>082-084>086-088>090-092>094-161900-
SOUTH-CENTRAL ILLINOIS

CITY           SKY/WX    TMP DP  RH WIND       PRES   REMARKS
CARBONDALE     CLOUDY    62  52  69 N6        30.19F
6HR MIN TEMP:  58; 6HR MAX TEMP:  63;

CAIRO*         PTSUNNY   67  56  67 N7        30.17F
EFFINGHAM*     CLOUDY    62  49  62 N3        30.20F
MARION         CLOUDY    63  54  72 N7        30.19F
MT. VERNON     CLOUDY    59  52  77 NE6       30.21S
CENTRALIA*     CLOUDY    61  51  70 NE5       30.20F
SALEM*         CLOUDY    62  54  75 NE5       30.21S
METROPOLIS*    CLOUDY    66  55  66 NE6       30.16F
$$

ILZ067-068-072-073-078-083-087-091-161900-
SOUTHEAST ILLINOIS

CITY           SKY/WX    TMP DP  RH WIND       PRES   REMARKS
LAWRENCEVILLE  CLOUDY    61  53  75 N5        30.19F
FLORA*         SUNNY     59  52  77 NE3       30.21S
FAIRFIELD*     CLOUDY   N/A N/A N/A N5        30.19F
HARRISBURG*    CLOUDY    63  54  72 NE6       30.19F
ROBINSON*      CLOUDY    62  55  80 NE5       30.20F
CARMI*         CLOUDY    64  55  73 N6        30.18F
$$

ABBREVIATIONS USED IN REMARKS
   TC - TEMPERATURE IN CELSIUS
  WCI - WIND CHILL INDEX
   HX - HEAT INDEX
  VSB - VISIBILITY
$$



USA.gov is the U.S. government's official web portal to all federal, state and local government web resources and services.